TimeAKST,TemperatureF,Dew PointF,Humidity,Sea Level PressureIn,VisibilityMPH,Wind Direction,Wind SpeedMPH,Gust SpeedMPH,PrecipitationIn,Events,Conditions,WindDirDegrees,DateUTC
12:53 AM,18.0,9.0,68,29.75,10.0,NE,4.6,-,N/A,,Clear,40,2012-11-22 09:53:00
1:53 AM,16.0,7.0,68,29.76,10.0,ENE,5.8,-,N/A,,Clear,60,2012-11-22 10:53:00
3:53 AM,17.1,8.1,68,29.77,10.0,NE,3.5,-,N/A,,Clear,50,2012-11-22 12:53:00
4:53 AM,15.1,9.0,77,29.76,10.0,NNE,4.6,-,N/A,,Clear,30,2012-11-22 13:53:00
5:53 AM,15.1,9.0,77,29.75,10.0,NNE,3.5,-,N/A,,Clear,20,2012-11-22 14:53:00
6:53 AM,15.1,9.0,77,29.75,10.0,NE,5.8,-,N/A,,Mostly Cloudy,40,2012-11-22 15:53:00
7:53 AM,16.0,10.0,77,29.73,10.0,NE,3.5,-,N/A,,Overcast,40,2012-11-22 16:53:00
8:53 AM,14.0,9.0,80,29.73,10.0,NNE,3.5,-,N/A,,Clear,30,2012-11-22 17:53:00
9:53 AM,12.9,8.1,81,29.72,10.0,North,4.6,-,N/A,,Clear,10,2012-11-22 18:53:00
10:53 AM,19.9,12.0,71,29.69,10.0,NE,5.8,-,N/A,,Clear,50,2012-11-22 19:53:00
11:53 AM,23.0,14.0,68,29.67,10.0,ENE,3.5,-,N/A,,Clear,70,2012-11-22 20:53:00
12:53 PM,24.1,14.0,65,29.64,10.0,ENE,6.9,-,N/A,,Clear,60,2012-11-22 21:53:00
1:53 PM,25.0,12.9,60,29.61,10.0,ENE,3.5,-,N/A,,Clear,70,2012-11-22 22:53:00
2:53 PM,26.1,12.9,58,29.58,10.0,NE,4.6,-,N/A,,Clear,40,2012-11-22 23:53:00
3:53 PM,23.0,10.9,60,29.55,10.0,NNE,6.9,-,N/A,,Clear,30,2012-11-23 00:53:00
4:53 PM,21.9,9.0,58,29.53,10.0,North,3.5,-,N/A,,Clear,10,2012-11-23 01:53:00
5:53 PM,21.0,8.1,57,29.51,10.0,NE,5.8,-,N/A,,Clear,40,2012-11-23 02:53:00
6:53 PM,19.9,7.0,57,29.50,10.0,NE,6.9,-,N/A,,Clear,40,2012-11-23 03:53:00
7:53 PM,19.0,7.0,59,29.48,10.0,NNE,9.2,-,N/A,,Scattered Clouds,30,2012-11-23 04:53:00
8:53 PM,19.9,8.1,60,29.47,10.0,NNE,5.8,-,N/A,,Scattered Clouds,20,2012-11-23 05:53:00
9:53 PM,16.0,7.0,68,29.47,10.0,NW,4.6,-,N/A,,Clear,320,2012-11-23 06:53:00
10:53 PM,17.1,8.1,68,29.47,10.0,North,3.5,-,N/A,,Clear,10,2012-11-23 07:53:00
11:53 PM,19.0,10.0,68,29.47,10.0,Calm,Calm,-,N/A,,Clear,0,2012-11-23 08:53:00